Weather History for Fort Leonard Wood, MO

Change the Weather History Date:

Wednesday, March 21, 2012

  Actual Average Record
Temperature  
Mean Temperature 60 °F -  
Max Temperature 67 °F 54 °F 84 °F (1997)
Min Temperature 54 °F 38 °F 20 °F (2013)
Degree Days  
Heating Degree Days 4    
Growing Degree Days 10 (Base 50)    
Moisture  
Dew Point 59 °F    
Average Humidity 96    
Maximum Humidity 100    
Minimum Humidity 77    
Precipitation  
Precipitation 1.43 in - - ()
Sea Level Pressure  
Sea Level Pressure 29.89 in    
Wind  
Wind Speed 11 mph (SE)    
Max Wind Speed 26 mph    
Max Gust Speed 36 mph    
Visibility 7 miles    
Events Rain    
Averages and records for this station are not official NWS values.
T = Trace of Precipitation, MM = Missing Value Source: NWS Daily Summary

Daily Weather History Graph

Daily Weather History Graph

Search for Another Location

Airport:

Trip Planner

Search our weather history database for the weather conditions in past years. The results will help you decide how hot, cold, wet, or windy it might be!

Date:

Astronomy

Mar. 21, 2012 Rise Set
Actual Time 7:09 AM CDT 7:21 PM CDT
Civil Twilight 6:43 AM CDT 7:48 PM CDT
Nautical Twilight 6:13 AM CDT 8:18 PM CDT
Astronomical Twilight 5:41 AM CDT 8:49 PM CDT
Moon 6:20 AM CDT (3/21) 6:48 PM CDT (3/21)
Length of Visible Light 13h 04m
Length of Day
12h 12m
Waning Crescent, 1% of the Moon is Illuminated
Mar 21
Waning Crescent
Mar 22
New
Mar 30
First Quarter
Apr 6
Full
Apr 13
Last Quarter

Hourly Weather History & Observations

Time (CDT) Temp. Dew Point Humidity Pressure Visibility Wind Dir Wind Speed Gust Speed Precip Events Conditions
12:11 AM 59.0 °F 59.0 °F 100% 29.89 in 10.0 mi NE 6.9 mph - N/A Rain Light Rain
12:30 AM 59.0 °F 59.0 °F 100% 29.89 in 10.0 mi NNE 5.8 mph - N/A   Light Drizzle
12:37 AM 59.0 °F 59.0 °F 100% 29.89 in 10.0 mi NNE 6.9 mph - N/A   Overcast
12:52 AM 59.0 °F 59.0 °F 100% 29.89 in 10.0 mi NNE 3.5 mph - N/A Rain Light Rain
12:55 AM 58.5 °F 58.5 °F 100% 29.88 in 9.0 mi NE 5.8 mph - 0.01 in Rain Light Rain
1:55 AM 58.5 °F 58.5 °F 100% 29.88 in 9.0 mi NNE 5.8 mph - 0.06 in Rain Light Rain
2:10 AM 59.0 °F 59.0 °F 100% 29.89 in 6.0 mi NE 5.8 mph - N/A Rain Rain
2:55 AM 58.3 °F 58.3 °F 100% 29.88 in 5.0 mi NE 5.8 mph - 0.12 in Rain Rain
3:55 AM 58.3 °F 58.3 °F 100% 29.87 in 8.0 mi ENE 5.8 mph - 0.06 in Rain Light Rain
4:55 AM 60.1 °F 60.1 °F 100% 29.88 in 6.0 mi SE 8.1 mph - 0.11 in Rain Light Rain
5:55 AM 60.4 °F 60.4 °F 100% 29.92 in 6.0 mi SSE 10.4 mph 17.3 mph 0.14 in Rain Light Rain
6:38 AM 60.8 °F 60.8 °F 100% 29.94 in 5.0 mi SSE 10.4 mph - N/A Rain Rain
6:42 AM 60.8 °F 60.8 °F 100% 29.93 in 2.5 mi SSE 12.7 mph - N/A Rain Rain
6:43 AM 60.8 °F 60.8 °F 100% 29.94 in 2.5 mi SSE 13.8 mph - N/A Rain Heavy Rain
6:44 AM 60.8 °F 60.8 °F 100% 29.94 in 2.5 mi SSE 11.5 mph - N/A Rain Heavy Rain
6:48 AM 60.8 °F 60.8 °F 100% 29.94 in 2.5 mi SSE 12.7 mph - N/A Rain Rain
6:51 AM 60.8 °F 60.8 °F 100% 29.94 in 3.0 mi SE 11.5 mph - N/A Rain Rain
6:55 AM 60.3 °F 60.3 °F 100% 29.94 in 4.0 mi SE 11.5 mph - 0.32 in Rain Light Rain
7:55 AM 59.7 °F 59.7 °F 100% 29.93 in 8.0 mi East 5.8 mph - 0.03 in Rain Light Rain
8:39 AM 59.0 °F 59.0 °F 100% 29.95 in 6.0 mi ESE 12.7 mph - N/A Rain Light Rain
8:51 AM 59.0 °F 59.0 °F 100% 29.95 in 5.0 mi ESE 13.8 mph - N/A Rain Light Rain
8:55 AM 59.7 °F 59.7 °F 100% 29.95 in 5.0 mi ESE 15.0 mph - 0.05 in Rain Light Rain
8:58 AM 59.0 °F 59.0 °F 100% 29.95 in 6.0 mi SE 17.3 mph 23.0 mph N/A Rain Light Rain
9:15 AM 59.0 °F 59.0 °F 100% 29.94 in 8.0 mi ESE 13.8 mph - N/A Rain Light Rain
9:16 AM 59.0 °F 59.0 °F 100% 29.94 in 8.0 mi ESE 12.7 mph - N/A Rain Light Rain
9:22 AM 59.0 °F 59.0 °F 100% 29.94 in 10.0 mi ESE 13.8 mph - N/A   Light Drizzle
9:26 AM 59.0 °F 59.0 °F 100% 29.95 in 10.0 mi ESE 13.8 mph - N/A   Overcast
9:45 AM 60.8 °F 60.8 °F 100% 29.93 in 10.0 mi ESE 12.7 mph - N/A   Light Drizzle
9:55 AM 59.9 °F 59.7 °F 99% 29.93 in 10.0 mi ESE 12.7 mph - 0.02 in   Mostly Cloudy
10:16 AM 60.8 °F 60.8 °F 100% 29.94 in 10.0 mi ESE 9.2 mph - N/A   Light Drizzle
10:55 AM 60.8 °F 60.3 °F 98% 29.92 in 10.0 mi East 13.8 mph - 0.01 in   Light Drizzle
11:00 AM 60.8 °F 60.8 °F 100% 29.91 in 10.0 mi ESE 12.7 mph - N/A   Mostly Cloudy
11:02 AM 60.8 °F 60.8 °F 100% 29.91 in 10.0 mi ESE 10.4 mph - N/A   Light Drizzle
11:13 AM 60.8 °F 59.0 °F 94% 29.92 in 3.0 mi ESE 12.7 mph - N/A Rain Light Rain
11:14 AM 60.8 °F 59.0 °F 94% 29.92 in 2.5 mi ESE 11.5 mph - N/A Rain Light Rain
11:24 AM 60.8 °F 59.0 °F 94% 29.93 in 3.0 mi SE 13.8 mph - N/A Rain Light Rain
11:41 AM 60.8 °F 60.8 °F 100% 29.93 in 10.0 mi SE 10.4 mph - N/A   Overcast
11:53 AM 60.8 °F 60.8 °F 100% 29.92 in 10.0 mi ESE 10.4 mph - N/A Rain Light Rain
11:55 AM 59.9 °F 59.9 °F 100% 29.93 in 10.0 mi ESE 9.2 mph - 0.07 in Rain Light Rain
12:27 PM 60.8 °F 59.0 °F 94% 29.92 in 2.5 mi ESE 16.1 mph 21.9 mph N/A Rain Light Rain
12:35 PM 60.8 °F 60.8 °F 100% 29.91 in 3.0 mi ESE 13.8 mph - N/A Rain Light Rain
12:55 PM 60.6 °F 59.9 °F 97% 29.92 in 8.0 mi ESE 15.0 mph - 0.09 in Rain Light Rain
1:15 PM 60.8 °F 60.8 °F 100% 29.90 in 10.0 mi ESE 17.3 mph - N/A   Overcast
1:55 PM 62.6 °F 60.8 °F 94% 29.89 in 10.0 mi SE 19.6 mph 24.2 mph 0.02 in   Mostly Cloudy
2:20 PM 62.6 °F 60.8 °F 94% 29.88 in 10.0 mi SE 17.3 mph - N/A   Mostly Cloudy
2:21 PM 62.6 °F 60.8 °F 94% 29.88 in 10.0 mi SE 17.3 mph - N/A   Light Drizzle
2:55 PM 62.6 °F 61.2 °F 95% 29.87 in 10.0 mi SE 17.3 mph - 0.00 in Rain Light Rain
2:56 PM 62.6 °F 60.8 °F 94% 29.87 in 10.0 mi SE 17.3 mph - N/A Rain Light Rain
3:00 PM 62.6 °F 60.8 °F 94% 29.87 in 10.0 mi SE 16.1 mph - N/A Rain Light Rain
3:06 PM 62.6 °F 60.8 °F 94% 29.86 in 10.0 mi ESE 17.3 mph 24.2 mph N/A   Overcast
3:55 PM 63.7 °F 59.9 °F 87% 29.83 in 10.0 mi ESE 16.1 mph - 0.01 in   Mostly Cloudy
4:55 PM 64.8 °F 59.4 °F 83% 29.81 in 10.0 mi ESE 15.0 mph 23.0 mph N/A   Overcast
5:55 PM 66.4 °F 58.8 °F 77% 29.79 in 10.0 mi SE 26.5 mph 35.7 mph N/A   Overcast
6:55 PM 66.4 °F 59.2 °F 78% 29.79 in 10.0 mi SE 26.5 mph 34.5 mph N/A   Overcast
6:58 PM 66.2 °F 59.0 °F 78% 29.80 in 10.0 mi SE 25.3 mph 34.5 mph N/A   Overcast
7:55 PM 65.8 °F 60.1 °F 82% 29.82 in 10.0 mi SE 19.6 mph - N/A   Overcast
7:58 PM 66.2 °F 60.8 °F 83% 29.81 in 10.0 mi SE 20.7 mph 28.8 mph N/A   Light Drizzle
8:07 PM 66.2 °F 60.8 °F 83% 29.82 in 10.0 mi SE 17.3 mph 32.2 mph N/A   Overcast
8:55 PM 65.7 °F 60.1 °F 82% 29.82 in 10.0 mi SE 21.9 mph 26.5 mph 0.00 in   Overcast
9:22 PM 66.2 °F 60.8 °F 83% 29.83 in 10.0 mi SE 20.7 mph 26.5 mph N/A   Light Drizzle
9:37 PM 66.2 °F 60.8 °F 83% 29.83 in 10.0 mi SE 17.3 mph 33.4 mph N/A   Overcast
9:44 PM 66.2 °F 60.8 °F 83% 29.82 in 10.0 mi SE 19.6 mph 24.2 mph N/A   Light Drizzle
9:55 PM 64.2 °F 61.5 °F 91% 29.82 in 4.0 mi SE 18.4 mph - 0.01 in Rain Light Rain
9:57 PM 64.4 °F 60.8 °F 88% 29.83 in 4.0 mi SE 13.8 mph - N/A Rain Light Rain
10:06 PM 62.6 °F 62.6 °F 100% 29.83 in 5.0 mi SE 15.0 mph - N/A Rain Light Rain
10:13 PM 62.6 °F 60.8 °F 94% 29.87 in 6.0 mi South 15.0 mph 28.8 mph N/A Rain Light Rain
10:17 PM 60.8 °F 59.0 °F 94% 29.87 in 3.0 mi SSW 13.8 mph 28.8 mph N/A Rain Heavy Rain
10:18 PM 60.8 °F 59.0 °F 94% 29.87 in 2.5 mi SSW 11.5 mph 28.8 mph N/A Rain Heavy Rain
10:22 PM 59.0 °F 57.2 °F 94% 29.86 in 2.5 mi SSW 10.4 mph 23.0 mph N/A Rain Heavy Rain
10:23 PM 59.0 °F 57.2 °F 94% 29.87 in 2.5 mi SSW 10.4 mph 23.0 mph N/A Rain Rain
10:26 PM 57.2 °F 57.2 °F 100% 29.87 in 3.0 mi SSW 10.4 mph - N/A Rain Rain
10:32 PM 57.2 °F 57.2 °F 100% 29.87 in 6.0 mi SSW 10.4 mph 18.4 mph N/A Rain Light Rain
10:33 PM 57.2 °F 57.2 °F 100% 29.88 in 6.0 mi SSW 9.2 mph 18.4 mph N/A Rain Light Rain
10:35 PM 57.2 °F 57.2 °F 100% 29.88 in 7.0 mi SSW 8.1 mph 18.4 mph N/A Rain Light Rain
10:36 PM 57.2 °F 57.2 °F 100% 29.88 in 8.0 mi SSW 5.8 mph 18.4 mph N/A Rain Light Rain
10:38 PM 57.2 °F 57.2 °F 100% 29.88 in 10.0 mi SSW 6.9 mph 18.4 mph N/A Rain Light Rain
10:46 PM 57.2 °F 57.2 °F 100% 29.91 in 10.0 mi South 9.2 mph - N/A Rain Light Rain
10:47 PM 57.2 °F 57.2 °F 100% 29.91 in 9.0 mi South 9.2 mph - N/A Rain Light Rain
10:49 PM 57.2 °F 57.2 °F 100% 29.91 in 9.0 mi South 9.2 mph - N/A Rain Light Rain
10:55 PM 57.0 °F 57.0 °F 100% 29.90 in 4.0 mi South 9.2 mph - 0.21 in Rain Rain
11:01 PM 57.2 °F 55.4 °F 94% 29.90 in 3.0 mi SSW 11.5 mph 18.4 mph N/A Rain Rain
11:12 PM 55.4 °F 55.4 °F 100% 29.91 in 8.0 mi South 6.9 mph - N/A Rain Light Rain
11:33 PM 55.4 °F 53.6 °F 94% 29.92 in 9.0 mi SSE 9.2 mph 20.7 mph N/A   Overcast
11:55 PM 54.1 °F 52.9 °F 95% 29.93 in 10.0 mi South 9.2 mph - 0.09 in   Overcast